Skip Page Navigation
NASA JPL Caltech
NASA Logo - Jet Propulsion Laboratory + View the NASA Portal
+ Center for Near-Earth Object Studies
JPL Home Earth Solar System Stars & Galaxies Technology
JPL Solar System Dynamics
BODIES ORBITS EPHEMERIDES TOOLS PHYSICAL DATA DISCOVERY FAQ SITE MAP
IMPORTANT: The SSD Announcement email list is now available. Major changes are coming in the near future, including possible hostname and/or URL changes. To be notified of such changes, subscribe to this email list.

Please visit this page for more details.


JPL Small-Body Database Browser
Search: [ help ]  
324433 (2006 SP408)
Classification: Main-belt Asteroid          SPK-ID: 2324433
Ephemeris | Orbit Diagram | Orbital Elements | Mission Design | Physical Parameters | Discovery Circumstances | Close-Approach Data ]

[ show orbit diagram ]
Orbital Elements at Epoch 2459000.5 (2020-May-31.0) TDB
Reference: JPL 11 (heliocentric ecliptic J2000)
 Element Value Uncertainty (1-sigma)   Units 
e .1724190312609701 8.8284e-08  
a 2.344208244444505 2.8429e-08 au
q 1.940022129863404 2.2051e-07 au
i 2.155550664317289 7.8598e-06 deg
node 299.5350723628877 0.00019873 deg
peri 325.025022475562 0.00020175 deg
M 42.89351432131986 4.5998e-05 deg
tp 2458844.299708647470
(2019-Dec-26.79970865)
0.00016559 TDB
period 1310.96986984256
3.59
2.3848e-05
6.529e-08
d
yr
n .2746058534840575 4.9954e-09 deg/d
Q 2.748394359025606 3.3331e-08 au
  Orbit Determination Parameters
   # obs. used (total)      129  
   data-arc span      6049 days (16.56 yr)  
   first obs. used      2002-09-14  
   last obs. used      2019-04-07  
   planetary ephem.      DE431  
   SB-pert. ephem.      SB431-N16  
   condition code      0  
   norm. resid. RMS      .52364  
   source      ORB  
   producer      Otto Matic  
   solution date      2019-Jul-14 11:00:40  

Additional Information
 Earth MOID = .924717 au 
 Jupiter MOID = 2.3326 au 
 T_jup = 3.541 
[ show covariance matrix ]

Ephemeris | Orbit Diagram | Orbital Elements | Mission Design | Physical Parameters | Discovery Circumstances | Close-Approach Data ]

Physical Parameter Table
Parameter Symbol Value Units Sigma Reference Notes
absolute magnitude H 17.1   n/a MPO434049  

324433 (2006 SP408)          Discovered 2006-Sep-30 by Mt. Lemmon Survey at Mount Lemmon
Reference: 20120406/Numbers.arcLast Updated: 2012-04-09

[ show close-approach data ]
Ephemeris | Orbit Diagram | Orbital Elements | Mission Design | Physical Parameters | Discovery Circumstances | Close-Approach Data ]
ABOUT SSD CREDITS/AWARDS PRIVACY/COPYRIGHT GLOSSARY LINKS
FirstGov 2020-Jun-01 01:14 UT
(server date/time)  
NASA Home Page
Site Manager:   Ryan S. Park
Webmaster  Alan B. Chamberlin